Miscellaneous Local Product
Issued by NWS Hastings, NE

Home | Current Version | Previous Version | Text Only | Print | Product List | Glossary On
Versions: 1 2 3 4 5 6 7 8 9 10 11 12 13 14 15 16 17 18 19 20 21 22 23 24 25 26 27 28 29 30 31 32 33 34 35 36 37 38 39 40 41 42 43 44 45 46 47 48 49 50
355
AXUS43 KGID 181202
MISGRI

GID CWA HOURLY WEATHER ROUNDUP
NATIONAL WEATHER SERVICE HASTINGS NE
600 AM CST WED JAN 18 2017

NOTE: "FAIR" INDICATES FEW OR NO CLOUDS BELOW 12,000 FEET WITH NO
SIGNIFICANT WEATHER AND/OR OBSTRUCTIONS TO VISIBILITY.

...SOUTH CENTRAL NEBRASKA...

CITY           SKY/WX    TMP DP  RH WIND       PRES   REMARKS
GRAND ISLAND   CLEAR     32  29  88 SW9       29.99F WCI  24
HASTINGS       CLOUDY    32  28  85 SW3       30.01F
KEARNEY        CLOUDY    30  27  86 SW5       29.99S WCI  25
ORD            CLOUDY    27  23  85 S9        29.93F WCI  18
YORK           CLOUDY    32  28  86 SW7       30.02F WCI  26
AURORA         CLEAR     32  29  90 SW8       30.00F WCI  24
LEXINGTON      CLEAR     31  28  87 W3        29.96F
HOLDREGE       CLOUDY    30  27  90 SW5       29.98S WCI  25
HEBRON         CLOUDY    31  28  90 CALM      30.05S

...NEBRASKA PANHANDLE...

CITY           SKY/WX    TMP DP  RH WIND       PRES   REMARKS
CHADRON        CLOUDY    21  14  74 W9        29.91F WCI  11
ALLIANCE       CLOUDY    19  13  77 W6        29.89F WCI  11
SCOTTSBLUFF    CLOUDY    26  15  63 NW8       29.92F WCI  18
SIDNEY         CLOUDY    23  16  74 NW9       29.93F WCI  13

...WESTERN AND NORTH CENTRAL NEBRASKA...

CITY           SKY/WX    TMP DP  RH WIND       PRES   REMARKS
VALENTINE      CLOUDY    20  16  84 SW8       29.88F WCI  10
AINSWORTH      CLOUDY    24  22  91 SW5       29.88F WCI  18
ONEILL         CLOUDY    32  29  88 SW9       29.91R WCI  24
BROKEN BOW     CLOUDY    27  26  96 CALM      29.93F
IMPERIAL       CLOUDY    23  19  85 W5        29.95S WCI  17
NORTH PLATTE   CLOUDY    24  21  88 S5        29.95F WCI  18
MCCOOK         CLOUDY    25  24  96 W7        29.96F WCI  17

...EASTERN NEBRASKA...

CITY           SKY/WX    TMP DP  RH WIND       PRES   REMARKS
NORFOLK        CLEAR     32  26  78 SW8       29.94F WCI  25
SO SIOUX CITY  CLEAR     27  24  89 SE7       29.97S WCI  19
TEKAMAH        CLOUDY    29  26  89 SE9       30.01F WCI  20
COLUMBUS       CLOUDY    30  27  86 S9        30.00S WCI  22
ALBION         CLOUDY    29  25  84 SE3       29.96S
OMAHA EPPLEY   CLOUDY    27  22  81 S12       30.05F WCI  17
OFFUTT AFB     CLEAR     21  21 100 E3        30.05S
MILLARD        CLOUDY    25  24  93 CALM      30.04S
LINCOLN        CLOUDY    27  25  92 S7        30.05F WCI  19
NEBRASKA CITY  CLOUDY    26  26  99 S10       30.06F WCI  16
BEATRICE       CLOUDY    27  26  96 S5        30.06S WCI  22
FALLS CITY     CLOUDY    24  22  91 S6        30.09S WCI  17

...NORTHERN KANSAS...

CITY           SKY/WX    TMP DP  RH WIND       PRES   REMARKS
GOODLAND       CLOUDY    27  25  92 SW6       29.94F WCI  20
HILL CITY      CLOUDY    32  30  92 CALM      29.99F
NORTON         SUNNY     28  25  86 SW5       29.97F WCI  23
PHILLIPSBURG   CLEAR     28  28 100 W3        30.01F
SMITH CENTER   CLEAR     27  25  93 E3        30.02F
HAYS           PTCLDY    30  28  92 CALM      30.03F
RUSSELL        PTCLDY    32  29  88 SW10      30.02F WCI  24
CONCORDIA      CLOUDY    34  30  85 SW5       30.05F WCI  30
SALINA           N/A    N/A N/A N/A MISG        N/A
TOPEKA         CLOUDY    26  23  88 S3        30.13R



USA.gov is the U.S. government's official web portal to all federal, state and local government web resources and services.